Location: Newark
(44.3867°N, 6.6531°E)
Time: 13:41:38
(UTC+00:00)

Envisat - Pass Details

Date: 29 January 2020
Orbit: 764 x 766 km, 98.1° (Epoch: 24 February)

Event Time Altitude Azimuth Distance (km) Brightness Sun altitude
Rises 05:23:12 0° 24° (NNE) 3,242 6.4 -16.6°
Reaches altitude 10° 05:25:52 10° 36° (NE) 2,310 5.8 -16.1°
Maximum altitude 05:30:10 27° 94° (E) 1,438 5.3 -15.4°
Drops below altitude 10° 05:34:26 10° 152° (SSE) 2,295 6.0 -14.6°
Sets 05:37:03 0° 164° (SSE) 3,216 6.6 -14.2°
